Regional Weather Roundup
Issued by NWS Kansas City/Pleasant Hill, MO

Home | Current Version | Previous Version | Text Only | Print | Product List | Glossary On
Versions: 1 2 3 4 5 6 7 8 9 10 11 12 13 14 15 16 17 18 19 20 21 22 23 24 25 26 27 28 29 30 31 32 33 34 35 36 37 38 39 40 41 42 43 44 45 46 47 48 49 50
000
ASUS43 KEAX 230911
RWREAX

WEATHER ROUNDUP FOR EASTERN KANSAS AND NORTHWEST MISSOURI
NATIONAL WEATHER SERVICE KANSAS CITY/PLEASANT HILL MO
400 AM CDT TUE SEP 23 2014

KSZ040-057-103>105-MOZ028-029-037-043-231000-
...KANSAS CITY METROPOLITAN AREA...

CITY           SKY/WX    TMP DP  RH WIND       PRES   REMARKS
K.C. INTL      PTCLDY    54  51  90 SE8       30.21F
K.C. DOWNTOWN  PTCLDY    60  53  77 CALM      30.21S
LEES SUMMIT    MOCLDY    58  50  75 S5        30.22F
OLATHE - IXD   PTCLDY    55  50  83 SE8       30.21F
OLATHE - OJC   PTCLDY    54  51  90 SE6       30.20F
LAWRENCE       PTCLDY    49  47  93 E5        30.20F

$$

MOZ001>008-011>017-020>025-030>033-038>040-044>046-053-054-231000-
...NORTHERN AND CENTRAL MISSOURI...

CITY           SKY/WX    TMP DP  RH WIND       PRES   REMARKS
ST. JOSEPH     PTCLDY    50  49  96 CALM      30.20F
MOSBY          MOSUNNY   48  48 100 CALM      30.22S
WHITEMAN AFB   CLEAR     50  48  93 CALM      30.22S
CLINTON        MOCLDY    50  50 100 CALM      30.23S
SEDALIA        PTCLDY    53  48  83 SE5       30.23F
WARSAW         NOT AVBL
MARSHALL       PTCLDY    54  52  94 E6        30.24S
CHILLICOTHE      N/A     51  49  92 CALM      30.25S
MOBERLY        PTCLDY    50  43  76 SE3       30.26R HAZE
KIRKSVILLE     PTCLDY    51  32  48 SE3       30.25F

$$

MOZ041-047>049-056>058-063>065-088>090-097-231000-
...EASTERN AND SOUTHERN MISSOURI...

CITY           SKY/WX    TMP DP  RH WIND       PRES   REMARKS
ST. LOUIS INTL PTCLDY    54  49  83 CALM      30.27S
SPIRIT OF STL  CLEAR     46  46 100 CALM      30.26S FOG
COLUMBIA       MOCLDY    53  48  83 SE6       30.25R
JEFFERSON CITY MOCLDY    48  47  96 CALM      30.25S
MEXICO         PTCLDY   N/A N/A N/A CALM      30.25F
HANNIBAL       CLEAR     50  46  87 CALM      30.27S
ROLLA          PTCLDY    54  46  74 SE8       30.24S
LEBANON        CLEAR     50  46  87 SE3       30.25F
OSAGE BEACH    PTCLDY    50  45  81 SE3       30.24F
SPRINGFIELD    PTCLDY    54  48  80 SE8       30.23F
BRANSON        PTCLDY    50  50 100 CALM      30.25S
NEVADA         PTCLDY    52  50  93 SE5       30.23F
JOPLIN         CLEAR     50  49  96 SE5       30.22F
WEST PLAINS    CLEAR     46  44  93 CALM      30.27S

$$

IAZ060-094-KSZ022-034>040-054-083-096-NEZ052-066-093-231000-
...KANSAS...SOUTHEAST NEBRASKA AND IOWA...

CITY           SKY/WX    TMP DP  RH WIND       PRES   REMARKS
TOPEKA         PTCLDY    58  53  84 SE5       30.19F
MANHATTAN      MOCLDY    61  53  75 S6        30.16F
EMPORIA        MOCLDY    56  52  86 SE7       30.19S
CHANUTE        MOCLDY    56  53  90 SE6       30.20F
WICHITA        MOCLDY    59  51  75 S9        30.17S
OMAHA          CLOUDY    62  51  67 S12       30.16F
LINCOLN        MOCLDY    60  51  72 S5        30.17S
FALLS CITY     MOCLDY    58  52  80 S8        30.17F
LAMONI         CLEAR     54  49  83 SE7       30.23S
DES MOINES     CLEAR     55  50  83 S8        30.21F

$$




USA.gov is the U.S. government's official web portal to all federal, state and local government web resources and services.